www.pogodaiklimat.ru

Погода и климат >> Архив погоды >> Перу >> Nazca


ПОГОДА в Nazca

  • Прогноз погоды в Nazca
  • Монитор погоды в Nazca
  • Климат города

АРХИВ ПОГОДЫ в Nazca

Время (UTC), дата Ветер
(напр.,м/с)
 
Видим.   Явления Облачность Т
(С)
Тd
(С)
f
(%)
Тe
(С)
Тes
(С)
Комфортность P
(гПа)
Po
(гПа)
Тmin
(С)
Tmax
(С)
R
(мм)
R24
(мм)
S
(см)
15 8.08 З 2 10 км {туман} ясно +17.7 +14.4 81 +18 +30 опасность
простуды
1014.0 950.2
18 8.08 З 3 10 км {туман} ясно +23.8 +16.8 65 +27 +41 жарко 1011.4 949.0
21 8.08 СЗ 3 10 км ясно +25.4 +17.7 62 +30 +32 душно 1009.7 947.7
12 9.08 нст 1 2000 м дымка 10/10 360 м
[St]
+12.2 +11.5 95 +12 +12 1015.7 950.6 +11.2
15 9.08 З 2 6000 м дымка {туман} ясно +16.4 +13.8 85 +17 +30 опасность
простуды
1015.4 951.2
18 9.08 З 3 10 км ясно +23.4 +17.5 69 +29 +43 душно 1011.9 949.1
21 9.08 З 3 10 км ясно +27.0 +19.0 62 +32 +35 очень
душно
1009.2 947.3
12 10.08 З 2 1000 м дымка 10/10 300 м
[Frnb]
+11.4 +10.4 94 +10 +10 1015.6 950.0 +10.8
15 10.08 З 2 10 км ясно +17.2 +14.4 84 +17 +30 опасность
простуды
1015.2 950.9
18 10.08 З 3 10 км ясно +23.8 +16.8 65 +27 +42 жарко 1012.3 949.8
21 10.08 З 4 10 км ясно +25.5 +17.4 61 +30 +32 душно 1010.2 948.2
12 11.08 нст 1 6000 м дымка ясно +11.0 +10.3 95 +11 +12 1016.8 951.3 +10.2
15 11.08 нст 1 10 км {туман} ясно +18.6 +14.4 77 +20 +35 опасность
простуды
1016.0 952.2
18 11.08 З 3 10 км ясно +24.8 +17.4 63 +29 +42 душно 1012.7 949.8
21 11.08 ЮЗ 4 10 км ясно +26.6 +18.2 60 +31 +34 душно 1010.3 948.2
12 12.08 З 2 4000 м дымка ясно +12.4 +11.0 91 +12 +13 1016.9 951.4 +11.2
15 12.08 СЗ 2 10 км ясно +17.4 +14.9 85 +18 +32 опасность
простуды
1017.5 953.1
18 12.08 ЮЗ 3 10 км ясно +23.0 +18.0 73 +28 +43 душно 1014.6 951.5
21 12.08 СЗ 3 10 км ясно +26.8 +19.4 64 +32 +35 очень
душно
1012.2 950.1
00 13.08 СЗ 3 10 км ясно +26.8 +19.4 64 +32 +32 очень
душно
1012.2 950.1
12 13.08 СВ 2 4000 м дымка 5/5 750 м
[Frnb]
+11.4 +10.0 91 +10 +10 1017.7 952.0 +10.6
15 13.08 СЗ 3 10 км ясно +17.6 +15.1 85 +18 +28 1018.3 953.9
18 13.08 З 3 10 км ясно +25.0 +17.7 64 +29 +44 душно 1012.8 950.3
21 13.08 ЮЗ 7 4000 м пыльный позёмок {метель} ясно +23.0 +17.1 69 +28 +29 душно 1011.3 948.4
12 14.08 нст 1 4000 м дымка 6/6 420 м
[St]
+11.1 +10.4 95 +11 +11 1016.2 950.8 +10.2
15 14.08 СЗ 3 8000 м мгла {туман} ясно +16.6 +13.7 83 +16 +28 опасность
простуды
1016.0 951.8
18 14.08 З 3 5000 м пыльный позёмок {метель} ясно +13.2 +17.3 100 +12 +25 опасность
простуды
1012.8 949.9
21 14.08 ЮЗ 2 8000 м пыльный позёмок {метель} ясно +25.6 +18.7 66 +31 +34 очень
душно
1009.9 947.7

 

Местоположение метеостанции Nazca (Перу): широта -14.86 долгота -74.96 высота над уровнем моря 567 м.

В архиве по умолчанию представлена погода в Nazca за последнюю неделю. Архивные данные за месяц целиком и за предыдущие месяцы, начиная с января 2011 года, Вы можете получить, выбрав интересующий диапазон дат из раскрывающегося списка и нажав кнопку "Ввод!".


*Определитесь, кто Вы:
робот инопланетянин человек

Внимание! Время в таблицах - всемирное. Для получения местного времени необходимо прибавить поправку, которая в Nazca равна -5 ч.

Смотрите также архив погоды в соседних городах и на ближайших метеорологических станциях:

Погода в Pisco (Перу) (184 км)
Погода в Ayacucho (Перу) (207 км)
Погода в Andahualaylas (Перу) (216 км)
Погода в Cuzco (Перу) (359 км)
Погода в Lima (Перу) (394 км)
Погода в Arequipa (Перу) (399 км)
Погода в Ilo (Перу) (499 км)
Погода в Juliaca (Перу) (521 км)
Погода в Huanuco (Перу) (571 км)
Погода в Tacna (Перу) (614 км)

Пояснения к столбцам:

Ветер - указаны скорость ветра в м/с - средняя за 10 мин, порывы в срок и между сроками (в фигурных скобках) и направление, откуда дует ветер: С - северный, СВ - северо-восточный, В - восточный, ЮВ - юго-восточный, Ю - южный, ЮЗ - юго-западный, З - западный, СЗ - северо-западный.
Видимость - горизонтальная дальность видимости в метрах или километрах. При видимости от 1 до 10 км при отсутствии осадков обычно наблюдается дымка, при ухудшении видимости до 1 км и менее - туман. В сухую погоду видимость может ухудшаться дымом, пылью или мглою.
Явления - указаны атмосферные явления, наблюдавшиеся в срок или в последний час перед сроком; фигурными скобками обозначены явления, наблюдавшиеся между сроками (за 1-3 часа до срока); квадратными скобками обозначены град или гололедные отложения с указанием их диаметра в мм.
Облачность - указаны через наклонную черту общая и нижняя облачность в баллах и высота нижней границы облаков в метрах; квадратными скобками обозначены формы облаков: Ci - перистые, Cs - перисто-слоистые, Cc - перисто-кучевые, Ac - высококучевые, As - высокослоистые, Sc - слоисто-кучевые, Ns - слоисто-дождевые, Cu - кучевые, Cb - кучево-дождевые. Подробнее классификацию облаков см. в Атласе облаков (PDF).
T - Температура воздуха - температура, измеренная на высоте 2 м над землей.
Td - Температура точки росы - температура, при понижении до которой содержащийся в воздухе водяной пар достигнет насыщения.
f - Относительная влажность воздуха - влажноcть воздуха, измеренная на высоте 2 м над землей.
Te - Эффективная температура - температура, которую ощущает одетый по сезону человек в тени. Характеристика душности погоды. При расчете учитывается влияние влажности воздуха и скорости ветра на теплоощущения человека.
Tes - Эффективная температура на солнце - температура, которую ощущает человек, с поправкой на солнечный нагрев. Характеристика знойности погоды. Зависит от высоты солнца над горизонтом, облачности и скорости ветра. Ночью, в пасмурную погоду, а также при ветре 12 м/с и более поправка равна нулю.
P - Атмосферное давление - приведенное к уровню моря атмосферное давление.
Po - Атмосферное давление - измеренное на уровне метеостанции атмосферное давление.
Tmin - Минимальная температура - минимум температуры воздуха на высоте 2 м над землей.
Tmax - Максимальная температура - максимум температуры воздуха на высоте 2 м над землей.
R - Количество осадков - Количество выпавших осадков за период времени, мм. При наведении курсора мыши на число - период времени, за который выпало указанное количество осадков.
R24 - Количество осадков - Количество выпавших осадков за 24 часа, мм.
S - Снежный покров - Высота снежного покрова, см. При наведении курсора мыши на число - состояние снежного покрова и степень покрытия местности в баллах.